This is the latest recevied weather packets stored in our database for station/object Kisslegg. If no packets are shown the sender has not sent any weather packets the latest 10 day(s).
| Time | Temp. | Humidity | Pressure | Rain* | Wind** | Luminosity | Snow |
|---|---|---|---|---|---|---|---|
| 1777224730 | 16.11° C | 45% | 1019.4 hPa | 0 mm | - | - | - |
| 1777222930 | 17.22° C | 41% | 1019.4 hPa | 0 mm | - | - | - |
| 1777221130 | 17.78° C | 36% | 1019.5 hPa | 0 mm | - | - | - |
| 1777219331 | 17.78° C | 33% | 1019.6 hPa | 0 mm | - | - | - |
| 1777217530 | 18.33° C | 29% | 1019.5 hPa | 0 mm | - | - | - |
| 1777215731 | 17.78° C | 23% | 1019.7 hPa | 0 mm | - | - | - |
| 1777213930 | 17.22° C | 32% | 1019.7 hPa | 0 mm | - | - | - |
| 1777212130 | 16.67° C | 33% | 1019.4 hPa | 0 mm | - | - | - |
| 1777210330 | 18.33° C | 31% | 1019.6 hPa | 0 mm | - | - | - |
| 1777208531 | 17.78° C | 31% | 1019.9 hPa | 0 mm | - | - | - |
| 1777206730 | 18.33° C | 38% | 1020.1 hPa | 0 mm | - | - | - |
| 1777204931 | 17.78° C | 33% | 1020.3 hPa | 0 mm | - | - | - |
| 1777203131 | 17.22° C | 36% | 1020.4 hPa | 0 mm | - | - | - |
| 1777201330 | 17.22° C | 44% | 1020.6 hPa | 0 mm | - | - | - |
| 1777199532 | 16.67° C | 36% | 1020.7 hPa | 0 mm | - | - | - |
| 1777197730 | 16.11° C | 36% | 1020.9 hPa | 0 mm | - | - | - |
| 1777195933 | 15.56° C | 43% | 1021 hPa | 0 mm | - | - | - |
| 1777194132 | 15° C | 43% | 1021 hPa | 0 mm | - | - | - |
| 1777192331 | 14.44° C | 50% | 1021.1 hPa | 0 mm | - | - | - |
| 1777190531 | 13.33° C | 46% | 1021.1 hPa | 0 mm | - | - | - |
| 1777188731 | 12.22° C | 48% | 1021.2 hPa | 0 mm | - | - | - |
| 1777186931 | 11.11° C | 52% | 1021 hPa | 0 mm | - | - | - |
| 1777185136 | 9.44° C | 58% | 1021 hPa | 0 mm | - | - | - |
| 1777183335 | 8.89° C | 53% | 1020.9 hPa | 0 mm | - | - | - |
| 1777181533 | 8.33° C | 61% | 1020.6 hPa | 0 mm | - | - | - |
* Rain since midnight (hover to see other rain measurements)
** Current wind speed in m/s (hover to see current wind gust speed)